DW8508 Weather Reports


time (UTC)temp
C
wind
direction
speed
KPH
gust
KPH
rain 1hr
cm
rain 24hr
cm
rain mn
cm
humidity
%
barometer
mb
20260504081507 -67 294 0.0 0.0 0.00 0.00 0.00 1016.9
20260504050113 -17 0.0 0.0 0.00 0.00 0.00 1015.9
20260504044555 -17 0.0 0.0 0.00 0.00 0.00 1015.9
20260504043039 -17 0.0 0.0 0.00 0.00 0.00 1015.7
20260504041532 -17 0.0 0.0 0.00 0.00 0.00 1015.6
20260504040029 -17 0.0 0.0 0.00 0.00 0.00 1015.7
20260504034523 -17 0.0 0.0 0.00 0.00 0.00 1015.6
20260504033020 -17 0.0 0.0 0.00 0.00 0.00 1015.6
20260504031516 -17 0.0 0.0 0.00 0.00 0.00 1015.5
20260504030010 -17 0.0 0.0 0.00 0.00 0.00 1015.3
20260504024509 -17 0.0 0.0 0.00 0.00 0.00 1015.3
20260504023050 -17 0.0 0.0 0.00 0.00 0.00 1015.3
20260504021545 -17 0.0 0.0 0.00 0.00 0.00 1015.3
20260504020041 -17 0.0 0.0 0.00 0.00 0.00 1015.1
20260504014539 -17 0.0 0.0 0.00 0.00 0.00 1015.1
20260504013037 -17 0.0 0.0 0.00 0.00 0.00 1015.0
20260504011528 -17 0.0 0.0 0.00 0.00 0.00 1014.9
20260504010023 -17 0.0 0.0 0.00 0.00 0.00 1014.9
20260504004519 -17 0.0 0.0 0.00 0.00 0.00 1014.7
20260504001554 -17 0.0 0.0 0.00 0.00 0.00 1014.8
20260504000118 -17 0.0 0.0 0.00 0.00 0.00 1014.8
20260503234544 -17 0.0 0.0 0.00 0.00 0.00 1014.9
20260503233042 -17 0.0 0.0 0.00 0.00 0.00 1014.8
20260503231537 -17 0.0 0.0 0.00 0.00 0.00 1014.8
20260503230031 -67 9 0.0 0.0 0.00 0.00 0.00 1014.9
20260503224530 -67 326 0.0 0.0 0.00 0.00 0.00 1014.9
20260503223006 -67 327 0.0 0.0 0.00 0.00 0.00 1015.0
20260503221501 -67 355 0.0 0.0 0.00 0.00 0.00 1014.9
20260503220040 -67 34 0.0 0.0 0.00 0.00 0.00 1015.1
20260503214536 -67 346 0.0 0.0 0.00 0.00 0.00 1015.2
20260503213015 -67 360 0.0 0.0 0.00 0.00 0.00 1015.3
20260503211512 -67 19 0.0 0.0 0.00 0.00 0.00 1015.4
20260503210053 -67 360 0.0 0.0 0.00 0.00 0.00 1015.6
20260503204548 -67 355 0.0 0.0 0.00 0.00 0.00 1015.5
20260503203045 -67 349 0.0 0.0 0.00 0.00 0.00 1015.7
20260503201540 -67 351 0.0 0.0 0.00 0.00 0.00 1015.7
20260503200035 -67 23 0.0 0.0 0.00 0.00 0.00 1015.7
20260503194531 -67 5 0.0 0.0 0.00 0.00 0.00 1015.7
20260503193027 -67 351 0.0 0.0 0.00 0.00 0.00 1015.8
20260503191522 -65 336 0.0 0.0 0.00 0.00 0.00 1015.8
20260503190018 -64 360 0.0 0.0 0.00 0.00 0.00 1015.8
20260503184504 -59 338 0.0 0.0 0.00 0.00 0.00 1016.0
20260503183102 -57 338 0.0 0.0 0.00 0.00 0.00 1016.1
20260503181556 -57 355 0.0 0.0 0.00 0.00 0.00 1016.0
20260503180048 -57 360 0.0 0.0 0.00 0.00 0.00 1015.9
20260503174543 -57 344 0.0 0.0 0.00 0.00 0.00 1016.1
20260503173039 -57 23 0.0 0.0 0.00 0.00 0.00 1016.1
20260503171552 -59 31 0.0 0.0 0.00 0.00 0.00 1016.1